This demonstration page uses our WeatherBlox Daily Observations layout. Learn more.

Left ArrowRight Arrow

39.51506, -84.39828

Hourly Observations for February 11, 2021

Temp ( °F °C ) Dew Point ( °F °C ) Humidity (%) Winds ( mph kmh ) Pressure ( in mb ) Visibility ( mi km ) Precip ( " mm )
12:15 am 00:15 Partly Cloudy 19 -7.4 14 -9.8 83 83 NNE 10 17 30.30 1026 10 16 0.00 0.00
12:35 am 00:35 Partly Cloudy 19 -7.3 15 -9.6 84 84 NNE 12 19 30.30 1026 10 16 0.00 0.00
12:55 am 00:55 Partly Cloudy 19 -7.3 15 -9.7 83 83 N 8 13 30.31 1026 10 16 0.00 0.00
1:15 am 01:15 Clear 19 -7.3 15 -9.7 83 83 NNE 9 15 30.31 1026 10 16 0.00 0.00
1:35 am 01:35 Clear 19 -7.3 14 -9.8 83 83 N 10 17 30.33 1027 10 16 0.00 0.00
1:55 am 01:55 Clear 19 -7.4 14 -9.9 83 83 NNE 8 13 30.33 1027 10 16 0.00 0.00
2:15 am 02:15 Clear 19 -7.4 14 -9.9 83 83 NNE 10 17 30.32 1027 10 16 0.00 0.00
2:35 am 02:35 Clear 18 -7.6 14 -10.1 82 82 N 10 17 30.34 1027 10 16 0.00 0.00
2:55 am 02:55 Clear 18 -7.6 14 -10.1 82 82 NNE 12 19 30.34 1027 10 16 0.00 0.00
3:15 am 03:15 Clear 18 -7.6 14 -10.1 82 82 N 10 17 30.35 1028 10 16 0.00 0.00
3:35 am 03:35 Partly Cloudy 18 -7.7 14 -10.1 83 83 NNE 14 22 30.35 1028 10 16 0.00 0.00
3:55 am 03:55 Cloudy with Light Snow 18 -7.8 14 -10.2 83 83 NNE 12 19 30.36 1028 10 16 0.00 0.00
4:15 am 04:15 Cloudy with Light Snow 18 -7.9 14 -10 85 85 NNE 13 20 30.36 1028 5 8 0.00 0.00
4:35 am 04:35 Cloudy with Light Snow 18 -8 14 -9.9 86 86 NNE 14 22 30.36 1028 4 6 0.00 0.00
4:55 am 04:55 Cloudy with Light Snow 18 -8 14 -9.9 86 86 NNE 10 17 30.37 1028 4 6 0.00 0.00
5:15 am 05:15 Cloudy with Light Snow 18 -8 14 -10.1 85 85 NNE 12 19 30.37 1028 7 11 0.00 0.00
5:35 am 05:35 Cloudy with Light Snow 18 -7.9 14 -10.1 84 84 NNE 8 13 30.38 1029 10 16 0.00 0.00
5:55 am 05:55 Cloudy with Light Snow 18 -7.8 14 -10.1 84 84 NNE 8 13 30.39 1029 10 16 0.00 0.00
6:15 am 06:15 Cloudy with Light Snow 18 -7.7 14 -9.9 84 84 NNE 9 15 30.38 1029 5 8 0.00 0.00
6:35 am 06:35 Cloudy with Light Snow 18 -7.8 15 -9.7 86 86 NNE 8 13 30.39 1029 5 8 0.00 0.00
6:55 am 06:55 Cloudy with Light Snow 18 -7.8 15 -9.7 86 86 NNE 8 13 30.39 1029 7 11 0.00 0.00
7:15 am 07:15 Cloudy with Light Snow 18 -7.8 15 -9.7 86 86 NNE 9 15 30.38 1029 7 11 0.00 0.00
7:35 am 07:35 Cloudy with Light Snow 18 -7.8 15 -9.7 86 86 NNE 9 15 30.39 1029 4 6 0.00 0.00
7:55 am 07:55 Cloudy with Light Snow 18 -7.8 15 -9.6 87 87 NNE 8 13 30.38 1029 5 8 0.00 0.00
8:15 am 08:15 Cloudy 18 -7.7 15 -9.6 86 86 NNE 12 19 30.39 1029 10 16 0.00 0.00
8:35 am 08:35 Cloudy 19 -7.5 14 -9.8 84 84 NNE 12 19 30.39 1029 10 16 0.00 0.00
8:55 am 08:55 Mostly Cloudy 19 -7.4 14 -10 82 82 NNE 12 19 30.40 1029 10 16 0.00 0.00
9:15 am 09:15 Cloudy 19 -7.2 14 -10.1 80 80 NNE 13 20 30.40 1029 10 16 0.00 0.00
9:35 am 09:35 Cloudy 19 -7 13 -10.4 77 77 NNE 13 20 30.40 1029 10 16 0.00 0.00
9:55 am 09:55 Cloudy 20 -6.8 13 -10.5 75 75 NNE 14 22 30.38 1029 10 16 0.00 0.00
10:15 am 10:15 Mostly Cloudy 20 -6.4 13 -10.6 72 72 NNE 14 22 30.39 1029 10 16 0.00 0.00
10:30 am 10:30 Cloudy 20 -6.4 13 -10.8 71 71 NNE 13 20 30.40 1030 10 16 0.00 0.00
10:55 am 10:55 Mostly Cloudy 21 -6.3 12 -11.3 68 68 NNE 15 24 30.41 1030 10 16 0.00 0.00
11:15 am 11:15 Cloudy 21 -6.1 11 -11.4 66 66 NNE 13 20 30.41 1030 10 16 0.00 0.00
11:35 am 11:35 Cloudy 21 -6 11 -11.4 66 66 NNE 15 24 30.40 1030 10 16 0.00 0.00
11:55 am 11:55 Cloudy 21 -5.9 11 -11.5 65 65 NNE 15 24 30.40 1030 10 16 0.00 0.00
12:15 pm 12:15 Cloudy 22 -5.7 11 -11.6 63 63 NE 16 26 30.39 1029 10 16 0.00 0.00
12:35 pm 12:35 Cloudy 22 -5.4 11 -11.7 62 62 NE 17 28 30.38 1029 10 16 0.00 0.00
12:55 pm 12:55 Cloudy 22 -5.3 11 -11.7 61 61 NE 13 20 30.37 1028 10 16 0.00 0.00
1:15 pm 13:15 Cloudy 23 -5.2 11 -11.6 61 61 NNE 14 22 30.35 1028 10 16 0.00 0.00
1:35 pm 13:35 Cloudy 23 -4.9 11 -11.7 59 59 NE 14 22 30.34 1027 10 16 0.00 0.00
1:55 pm 13:55 Cloudy 23 -4.8 11 -11.5 60 60 NNE 14 22 30.33 1027 10 16 0.00 0.00
2:15 pm 14:15 Cloudy 24 -4.6 10 -12 57 57 NNE 14 22 30.32 1027 10 16 0.00 0.00
2:35 pm 14:35 Partly Cloudy 24 -4.6 11 -11.8 58 58 NNE 10 17 30.33 1027 10 16 0.00 0.00
2:55 pm 14:55 Cloudy 24 -4.5 10 -12.1 56 56 NE 12 19 30.33 1027 10 16 0.00 0.00
3:15 pm 15:15 Mostly Cloudy 24 -4.3 10 -12 55 55 NNE 13 20 30.32 1027 10 16 0.00 0.00
3:35 pm 15:35 Partly Cloudy 25 -4.1 11 -11.6 56 56 NNE 12 19 30.31 1026 10 16 0.00 0.00
3:55 pm 15:55 Sunny 25 -4 11 -11.6 56 56 NNE 12 19 30.32 1027 10 16 0.00 0.00
4:15 pm 16:15 Sunny 25 -4.1 11 -11.6 56 56 NNE 13 20 30.32 1027 10 16 0.00 0.00
4:35 pm 16:35 Sunny 24 -4.2 11 -11.7 56 56 NNE 15 24 30.33 1027 10 16 0.00 0.00
4:55 pm 16:55 Partly Cloudy 24 -4.3 11 -11.5 58 58 NNE 13 20 30.32 1027 10 16 0.00 0.00
5:15 pm 17:15 Partly Cloudy 24 -4.4 12 -11.3 59 59 NNE 14 22 30.32 1027 10 16 0.00 0.00
5:35 pm 17:35 Mostly Cloudy 24 -4.6 11 -11.4 59 59 NNE 12 19 30.32 1027 10 16 0.00 0.00
5:55 pm 17:55 Sunny 23 -4.8 11 -11.5 60 60 NNE 14 22 30.33 1027 10 16 0.00 0.00
6:15 pm 18:15 Clear 23 -4.8 11 -11.5 60 60 NNE 14 22 30.34 1027 10 16 0.00 0.00
6:35 pm 18:35 Clear 23 -4.9 11 -11.5 60 60 NNE 13 20 30.33 1027 10 16 0.00 0.00
6:55 pm 18:55 Clear 23 -5.1 11 -11.7 60 60 NNE 15 24 30.32 1027 10 16 0.00 0.00
7:15 pm 19:15 Clear 23 -5.2 11 -11.5 62 62 NNE 12 19 30.32 1027 10 16 0.00 0.00
7:35 pm 19:35 Cloudy 22 -5.4 12 -11.3 64 64 N 12 19 30.33 1027 10 16 0.00 0.00
7:55 pm 19:55 Cloudy 22 -5.7 12 -11.2 66 66 NNE 12 19 30.33 1027 10 16 0.00 0.00
8:15 pm 20:15 Cloudy 22 -5.7 12 -11 67 67 NNE 12 19 30.33 1027 10 16 0.00 0.00
8:35 pm 20:35 Cloudy 21 -6 12 -11 68 68 NNE 14 22 30.32 1027 10 16 0.00 0.00
8:55 pm 20:55 Clear 20 -6.4 12 -11.1 70 70 NNE 14 22 30.30 1026 10 16 0.00 0.00
9:15 pm 21:15 Clear 20 -6.7 12 -11.2 71 71 NNE 13 20 30.31 1027 10 16 0.00 0.00
9:35 pm 21:35 Partly Cloudy 19 -7 12 -11.2 72 72 NNE 13 20 30.34 1027 10 16 0.00 0.00
9:55 pm 21:55 Mostly Cloudy 19 -7.2 12 -11.2 73 73 NNE 13 20 30.33 1027 10 16 0.00 0.00
10:15 pm 22:15 Partly Cloudy 19 -7.3 12 -11.1 75 75 NNE 13 20 30.33 1027 10 16 0.00 0.00
10:35 pm 22:35 Clear 19 -7.5 12 -11.1 76 76 NNE 12 19 30.32 1027 10 16 0.00 0.00
10:55 pm 22:55 Partly Cloudy 19 -7.5 12 -11 76 76 NE 10 17 30.31 1026 10 16 0.00 0.00
11:15 pm 23:15 Partly Cloudy 18 -7.6 12 -11 77 77 NNE 10 17 30.29 1026 10 16 0.00 0.00
11:35 pm 23:35 Clear 18 -7.8 12 -10.9 79 79 NNE 8 13 30.29 1026 10 16 0.00 0.00
11:55 pm 23:55 Partly Cloudy 18 -7.7 13 -10.8 79 79 NNE 9 15 30.28 1025 10 16 0.00 0.00

Powered by AerisWeather